Regional Weather Roundup
Issued by NWS Green Bay, WI

Home | Current Version | Previous Version | Text Only | Print | Product List | Glossary On
Versions: 1 2 3 4 5 6 7 8 9 10 11 12 13 14 15 16 17 18 19 20 21 22 23 24 25 26 27 28 29 30 31 32 33 34 35 36 37 38 39 40 41 42 43 44 45 46 47 48 49 50
000
ASUS43 KGRB 032059
RWRGRB

NORTH-CENTRAL AND NORTHEAST WISCONSIN REGIONAL WEATHER ROUNDUP
NATIONAL WEATHER SERVICE GREEN BAY WI
400 PM CDT SUN MAY 03 2015

WIZ005-009-010>012-018-019-032200-
NORTH CENTRAL WISCONSIN

CITY           SKY/WX    TMP DP  RH WIND       PRES   REMARKS
IRONWOOD       CLOUDY    75  52  43 NW14G20   29.73S
MANITOWISH WTR NOT AVBL
ARBOR VITAE    NOT AVBL
EAGLE RIVER    NOT AVBL
LAND O LAKES   NOT AVBL
RHINELANDER    MOSUNNY   78  50  37 SW14G21   29.79F
PHILLIPS       NOT AVBL
ANTIGO         NOT AVBL
TOMAHAWK       NOT AVBL
MERRILL        NOT AVBL
$$

WIZ013-073-032200-
NORTHEAST WISCONSIN

CITY           SKY/WX    TMP DP  RH WIND       PRES   REMARKS
IRON MOUNTAIN  MOSUNNY   81  48  31 SW17G24   29.73F
MARINETTE      MOSUNNY   79  52  38 S20G29    29.78F
$$

WIZ017-030-035>037-045-032200-
CENTRAL WISCONSIN

CITY           SKY/WX    TMP DP  RH WIND       PRES   REMARKS
MEDFORD        NOT AVBL
WAUSAU         MOSUNNY   78  51  38 SW10G21   29.78F
MOSINEE        MOSUNNY   77  52  41 SW10G20   29.82S
MARSHFIELD     MOSUNNY   80  52  37 SW9       29.80F
WISC RAPIDS    MOSUNNY   80  49  33 SW13G18   29.81F
STEVENS POINT  NOT AVBL
WAUPACA        NOT AVBL
SHAWANO        NOT AVBL
CLINTONVILLE   PTSUNNY   79  50  36 SW17G25   29.80S
$$

WIZ038-039-048-051-032200-
FOX VALLEY

CITY           SKY/WX    TMP DP  RH WIND       PRES   REMARKS
NWS GREEN BAY  MOSUNNY   77  54  44 S20G26    29.82F
APPLETON       PTSUNNY   77  52  41 SW21G28   29.83F
OSHKOSH        CLOUDY    76  55  48 S20G26    29.83S
FOND DU LAC    CLOUDY    77  53  43 SW21G30   29.85S
$$

WIZ022-050-052-032200-
EAST CENTRAL WISCONSIN

CITY           SKY/WX    TMP DP  RH WIND       PRES   REMARKS
STURGEON BAY   MOSUNNY   66  46  48 S16       29.84F
MANITOWOC      NOT AVBL
SHEBOYGAN      PTSUNNY   74  52  46 S9        29.86S
$$

LMZ563-521-522-541>543-032200-
LAKESHORE

STATION/POSITION TIME  TEMP    WIND        PRES    VSBY  WAVE
                       AIR SEA DIR/SP/G                  HT/PER
                 (UTC) (F)     (DEG/KT/KT) (MB)    (MI)  (FT/S)
SHEBOYGAN LKSHOR 2000   48     170/ 20/ 22 1012.0F
KEWAUNEE LKSHORE 2000   48     180/ 16/ 18 1010.3F
NORTHPORT PIER   2000   63     170/  9/ 17 1010.5S
CHAMBERS ISLAND  2000   72     150/  8/ 16 1009.5F
MENOMINEE LKSHOR 2000   56     130/ 14/ 16 1009.9F
$$



USA.gov is the U.S. government's official web portal to all federal, state and local government web resources and services.